SL-16 DEB, 22807

Orbit data source: Space-Track

SL-16 DEB, 22807 is space debris in LEO originally from a launch on Thu, 16 Sep 1993 UTC launched from the Tyuratam Missile And Space Complex (TTMTR). Debris objects in space refer to the collection of defunct objects orbiting the Earth. Examples of debris include non-operational satellites, rocket bodies, and fragments generated from explosions, collisions, or faulty payload assembly.

Loading next visibility...
Identifier
22807, 1993-059F
Orbit
LEO
Country
Flag of CISCIS
Related business
Manufacturer
Yuzhnoe
Mission
Spacecraft
Bus & Motor
SEP MOTOR COVER, Unknown motor
Mass
~0 kg wet, ~1 kg dry
Launch date (UTC)
1993-09-16 (33 years ago)
Launch vehicle
Unknown
Launch site
Tyuratam Missile And Space Complex (TTMTR)
Object type
Payload
Rocket body
Debris
Shape & HBR
Unknown shape, 0.1 m
Radar Cross Section
Medium (>0.1 m² and <1 m²)

Expand to show TLE details & history
Last TLE update: 2 days ago

TLE from 2 days ago
0 SL-16 DEB
1 22807U 93059F   26171.38297743 -.00000016  00000-0  23784-4 0  9991
2 22807  71.0154 207.4865 0203959  61.8162 320.9585 13.72676269639990
Epoch: 2026-06-20T09:11Z
TLE epoch observation values (Epoch: 2026-06-20T09:11:29.249Z)
Latitude
20.07827°
Longitude
168.20185°
Altitude
876.441 km
Speed
7.474 km/s
True Right ascension
14h 18m 41s
True Declination
19° 58' 10"
Sunlit
Object was in daylight at epoch
Visualization orbit readout
Latitude
Unknown
Longitude
Unknown
Altitude
Unknown
Speed
Unknown
Apparent Right ascension
Unknown
Apparent Declination
Unknown
Sunlit
N/A
Visualization observer readout
Local Sidereal Time
00:50:05
Azimuth
Unknown
Elevation
Unknown
Doppler factor
Unknown
Orbital elements
Apogee altitude
1,138.18 km
Perigee altitude
837.705 km
Semi-major axis
7,366.079 km
Eccentricity
0.0204
Inclination
71.0154°
RAAN
207.4865°
Arg. of periapsis
61.8162°
True anomaly
319.4568°
Mean anomaly
320.9585°
Eccentric anomaly
320.21064°
Mean motion
3.43312 °/min
Orbital period
104.86 mins
BSTAR
0.000023784
Loading maneuver chart data...
Computing Atmospheric mass density...
Loading historical data...
Loading historical data...
Loading historical data...
Loading historical data...
Loading historical data...
Loading historical data...
Loading historical data...

Documentation

Showing up to 5 results
|